This is the latest recevied weather packets stored in our database for station/object ON7EQ-13. If no packets are shown the sender has not sent any weather packets the latest 10 day(s).
| Time | Temp. | Humidity | Pressure | Rain* | Wind** | Luminosity | Snow |
|---|---|---|---|---|---|---|---|
| 1777755195 | 15.56° C | 99% | 1011.8 hPa | - | - | - | - |
| 1777754595 | 15.56° C | 99% | 1012 hPa | - | - | - | - |
| 1777753994 | 15.56° C | 99% | 1012.5 hPa | - | - | - | - |
| 1777753395 | 15.56° C | 99% | 1012.6 hPa | - | - | - | - |
| 1777752794 | 15.56° C | 99% | 1012.6 hPa | - | - | - | - |
| 1777752195 | 16.11° C | 99% | 1012.9 hPa | - | - | - | - |
| 1777751595 | 16.11° C | 99% | 1012.9 hPa | - | - | - | - |
| 1777750995 | 16.67° C | 97% | 1013 hPa | - | - | - | - |
| 1777750395 | 18.33° C | 97% | 1012.8 hPa | - | - | - | - |
| 1777749795 | 18.89° C | 99% | 1011.8 hPa | - | - | - | - |
| 1777749194 | 18.89° C | 99% | 1011.6 hPa | - | - | - | - |
| 1777748595 | 19.44° C | 99% | 1011.7 hPa | - | - | - | - |
| 1777747996 | 19.44° C | 99% | 1011.8 hPa | - | - | - | - |
| 1777747395 | 19.44° C | 99% | 1011.9 hPa | - | - | - | - |
| 1777746795 | 19.44° C | 99% | 1011.9 hPa | - | - | - | - |
| 1777746194 | 20° C | 98% | 1011.9 hPa | - | - | - | - |
| 1777745595 | 20° C | 96% | 1011.9 hPa | - | - | - | - |
| 1777744994 | 20.56° C | 94% | 1011.8 hPa | - | - | - | - |
| 1777744395 | 21.11° C | 91% | 1011.9 hPa | - | - | - | - |
| 1777743795 | 21.67° C | 89% | 1011.9 hPa | - | - | - | - |
| 1777743194 | 22.22° C | 87% | 1011.9 hPa | - | - | - | - |
| 1777742595 | 22.78° C | 85% | 1011.8 hPa | - | - | - | - |
| 1777741995 | 23.33° C | 86% | 1012 hPa | - | - | - | - |
| 1777741395 | 23.33° C | 85% | 1012.1 hPa | - | - | - | - |
| 1777740794 | 22.78° C | 86% | 1012.3 hPa | - | - | - | - |
* Rain since midnight (hover to see other rain measurements)
** Current wind speed in m/s (hover to see current wind gust speed)